"Pseudo-MPEC" for C1HP2P2

Created 2019 Dec 6 13:07:16 UT using Find_Orb

Click here for an explanation of pseudo-MPECs

 
 Astrometry: 
     C1HP2P2  C2019 12 02.51684 11 33 36.63 +34 49 47.8    ~C2D7 21.4 GVNEOCPG96
     C1HP2P2  C2019 12 02.52198 11 33 37.27 +34 49 50.0    ~C2D7 21.5 GVNEOCPG96
     C1HP2P2  C2019 12 02.52710 11 33 37.83 +34 49 52.7    ~C2D7 21.3 GVNEOCPG96
     C1HP2P2  C2019 12 02.53223 11 33 38.48 +34 49 55.2    ~C2D7 21.5 GVNEOCPG96
     C1HP2P2  C2019 12 03.43787 11 35 26.67 +34 57 13.4    ~C3BM 21.3 GVNEOCPG96
     C1HP2P2  C2019 12 03.43931 11 35 26.87 +34 57 13.9    ~C3BM 21.5 GVNEOCPG96
     C1HP2P2  C2019 12 03.45226 11 35 28.35 +34 57 20.2    ~C3BM 21.9 GVNEOCPG96
     C1HP2P2  C2019 12 03.45701 11 35 28.95 +34 57 22.4    ~C3BM 21.5 GVNEOCPG96
     C1HP2P2  C2019 12 06.46436 11 41 23.75 +35 22 41.3    ~C6Bb 21.9 GVNEOCPG96
     C1HP2P2  C2019 12 06.46597 11 41 24.01 +35 22 42.1    ~C6Bb 21.2 GVNEOCPG96
     C1HP2P2  C2019 12 06.46913 11 41 24.40 +35 22 44.0    ~C6Bb       VNEOCPG96
     C1HP2P2  C2019 12 06.47233 11 41 24.73 +35 22 45.1    ~C6Bb 22.0 GVNEOCPG96

Station data:
(G96) Mt. Lemmon Survey  (N32.442754 W110.788720)  US/Arizona.  Observers T.
   A. Pruyne, B. M. Africano, E. J. Christensen, G. A. Farneth, D. C. Fuls,
   A. R. Gibbs, A. D. Grauer, H. Gröller, J. A. Johnson, R. A. Kowalski, S.
   M. Larson, G. J. Leonard, D. Rankin, R. L. Seaman, F. C. Shelly. 1.5-m
   reflector + 10K CCD.

Orbital elements:  C1HP2P2
   Perihelion 2019 Sep 23.072176 +/- 12.5 TT =  1:43:56 (JD 2458749.572176)
Epoch 2019 Dec  6.0 TT = JDT 2458823.5                        AutoNEOCP
M  17.19605824 +/- 3.9              (J2000 ecliptic)
n   0.23260603 +/- 0.0232           Peri.   27.99609 +/- 3.9
a   2.61851696 +/- 0.174            Node    82.62110 +/- 0.9
e   0.1749848 +/- 0.046             Incl.   33.47181 +/- 0.34
P   4.24                   H 17.5   G  0.15   U 10.2  
q 2.16031609 +/- 0.0304    Q 3.07671784 +/- 0.349
From 12 observations 2019 Dec. 2-6; mean residual 0".26
Residuals in arcseconds: 
191202 G96  .19-  .11+    191203 G96  .12-  .30+    191206 G96  .71-  .08+    
191202 G96  .23+  .18-    191203 G96  .25+  .08+    191206 G96  .19+  .02+    
191202 G96  .30-  .03+    191203 G96  .31-  .10-    191206 G96  .50+  .25+    
191202 G96  .26+  .04+    191203 G96  .19+  .27-    191206 G96  .02+  .35-    

Ephemerides (geocentric):
Date (UTC) HH   RA              Dec         delta   r     elong  mag " sig PA
---- -- -- --  -------------   -----------  ------ ------ -----  --- ---- ---
2019 12 06 13  11 41 32.625   +35 23 21.90  1.9051 2.1905  93.0 21.8 .081 143
2019 12 06 14  11 41 37.495   +35 23 43.64  1.9047 2.1905  93.0 21.8 .100 147
2019 12 06 15  11 41 42.364   +35 24 05.39  1.9043 2.1905  93.1 21.8 .120 150
2019 12 06 16  11 41 47.232   +35 24 27.17  1.9040 2.1906  93.1 21.8 .140 153
2019 12 06 17  11 41 52.099   +35 24 48.96  1.9036 2.1906  93.1 21.8 .161 154
2019 12 06 18  11 41 56.964   +35 25 10.77  1.9032 2.1906  93.1 21.8 .182 156
2019 12 06 19  11 42 01.828   +35 25 32.60  1.9029 2.1906  93.2 21.8 .204 157
2019 12 06 20  11 42 06.691   +35 25 54.45  1.9025 2.1907  93.2 21.8 .227 158
2019 12 06 21  11 42 11.553   +35 26 16.32  1.9022 2.1907  93.2 21.8 .250 158
2019 12 06 22  11 42 16.413   +35 26 38.20  1.9018 2.1907  93.2 21.8 .273 159
2019 12 06 23  11 42 21.272   +35 27 00.10  1.9014 2.1908  93.3 21.8 .297 160
2019 12 07 00  11 42 26.130   +35 27 22.03  1.9011 2.1908  93.3 21.8 .321 160
2019 12 07 01  11 42 30.986   +35 27 43.97  1.9007 2.1908  93.3 21.8 .346 160
2019 12 07 02  11 42 35.842   +35 28 05.92  1.9003 2.1909  93.3 21.8 .371 161
2019 12 07 03  11 42 40.696   +35 28 27.90  1.9000 2.1909  93.4 21.8 .397 161
2019 12 07 04  11 42 45.548   +35 28 49.90  1.8996 2.1909  93.4 21.8 .423 161
2019 12 07 05  11 42 50.400   +35 29 11.91  1.8993 2.1910  93.4 21.8 .450 162
2019 12 07 06  11 42 55.250   +35 29 33.94  1.8989 2.1910  93.4 21.8 .477 162
2019 12 07 07  11 43 00.099   +35 29 55.99  1.8985 2.1910  93.5 21.8 .504 162
2019 12 07 08  11 43 04.947   +35 30 18.06  1.8982 2.1911  93.5 21.8 .532 162
2019 12 07 09  11 43 09.793   +35 30 40.15  1.8978 2.1911  93.5 21.8 .561 162
2019 12 07 10  11 43 14.638   +35 31 02.26  1.8975 2.1911  93.5 21.8 .590 163
2019 12 07 11  11 43 19.482   +35 31 24.38  1.8971 2.1912  93.6 21.8 .619 163
2019 12 07 12  11 43 24.325   +35 31 46.53  1.8967 2.1912  93.6 21.8 .649 163
2019 12 07 13  11 43 29.166   +35 32 08.69  1.8964 2.1912  93.6 21.8 .679 163
2019 12 07 14  11 43 34.006   +35 32 30.87  1.8960 2.1913  93.6 21.8 .710 163
2019 12 07 15  11 43 38.845   +35 32 53.07  1.8957 2.1913  93.7 21.8 .741 163
2019 12 07 16  11 43 43.683   +35 33 15.28  1.8953 2.1913  93.7 21.8 .773 163
2019 12 07 17  11 43 48.519   +35 33 37.52  1.8949 2.1914  93.7 21.8 .805 163
2019 12 07 18  11 43 53.354   +35 33 59.77  1.8946 2.1914  93.7 21.8 .838 163
2019 12 07 19  11 43 58.188   +35 34 22.05  1.8942 2.1915  93.7 21.8 .871 164
2019 12 07 20  11 44 03.020   +35 34 44.34  1.8939 2.1915  93.8 21.8 .905 164
2019 12 07 21  11 44 07.851   +35 35 06.65  1.8935 2.1915  93.8 21.8 .939 164
2019 12 07 22  11 44 12.681   +35 35 28.98  1.8931 2.1916  93.8 21.8 .973 164
2019 12 07 23  11 44 17.509   +35 35 51.33  1.8928 2.1916  93.8 21.8 1.01 164
2019 12 08 00  11 44 22.337   +35 36 13.69  1.8924 2.1916  93.9 21.8 1.04 164
2019 12 08 01  11 44 27.163   +35 36 36.08  1.8921 2.1917  93.9 21.8 1.08 164
2019 12 08 02  11 44 31.987   +35 36 58.48  1.8917 2.1917  93.9 21.8 1.12 164
2019 12 08 03  11 44 36.811   +35 37 20.90  1.8913 2.1917  93.9 21.8 1.15 164
2019 12 08 04  11 44 41.633   +35 37 43.34  1.8910 2.1918  94.0 21.8 1.19 164
2019 12 08 05  11 44 46.454   +35 38 05.80  1.8906 2.1918  94.0 21.8 1.23 164
2019 12 08 06  11 44 51.273   +35 38 28.28  1.8903 2.1918  94.0 21.8 1.27 164
2019 12 08 07  11 44 56.091   +35 38 50.77  1.8899 2.1919  94.0 21.8 1.30 164
2019 12 08 08  11 45 00.908   +35 39 13.29  1.8895 2.1919  94.1 21.8 1.34 164
2019 12 08 09  11 45 05.724   +35 39 35.82  1.8892 2.1919  94.1 21.8 1.38 164
2019 12 08 10  11 45 10.538   +35 39 58.38  1.8888 2.1920  94.1 21.8 1.42 164
2019 12 08 11  11 45 15.351   +35 40 20.95  1.8885 2.1920  94.1 21.8 1.46 165
2019 12 08 12  11 45 20.163   +35 40 43.54  1.8881 2.1920  94.2 21.8 1.50 165